Change the Weather History Date:

Monday, July 8, 2013

  Actual Average Record
Temperature  
Mean Temperature 76 °F -  
Max Temperature 84 °F 82 °F 98 °F (1988)
Min Temperature 69 °F 57 °F 43 °F (1984)
Cooling Degree Days 12    
Growing Degree Days 26 (Base 50)    
Moisture  
Dew Point 67 °F    
Average Humidity 80    
Maximum Humidity 94    
Minimum Humidity 56    
Precipitation  
Precipitation 0.94 in - - ()
Sea Level Pressure  
Sea Level Pressure 30.06 in    
Wind  
Wind Speed 4 mph (ESE)    
Max Wind Speed 21 mph    
Max Gust Speed 25 mph    
Visibility 8 miles    
Events Fog , Rain , Thunderstorm    
Averages and records for this station are not official NWS values.
T = Trace of Precipitation, MM = Missing Value Source: NWS Daily Summary

Daily Weather History Graph

Daily Weather History Graph

Search for Another Location

Airport or City:

Trip Planner

Search our weather history database for the weather conditions in past years. The results will help you decide how hot, cold, wet, or windy it might be!

Date:

Astronomy

Jul. 08, 2013 Rise Set
Actual Time 5:41 AM EDT 8:50 PM EDT
Civil Twilight 5:07 AM EDT 9:24 PM EDT
Nautical Twilight 4:23 AM EDT 10:08 PM EDT
Astronomical Twilight 3:30 AM EDT 11:00 PM EDT
Moon 6:10 AM EDT (7/8) 8:48 PM EDT (7/8)
Length of Visible Light 16h 17m
Length of Day
15h 08m
New Moon, 0% of the Moon is Illuminated
Jul 8
New Moon
Jul 15
First Quarter
Jul 22
Full
Jul 29
Last Quarter
Aug 6
New

Hourly Weather History & Observations

Time (EDT) Temp. Heat Index Dew Point Humidity Pressure Visibility Wind Dir Wind Speed Gust Speed Precip Events Conditions
12:54 AM 70.0 °F - 64.0 °F 81% 30.04 in 10.0 mi Calm Calm - N/A   Mostly Cloudy
1:54 AM 71.1 °F - 64.0 °F 78% 30.04 in 10.0 mi ESE 3.5 mph - N/A   Mostly Cloudy
2:54 AM 70.0 °F - 64.0 °F 81% 30.04 in 10.0 mi SE 3.5 mph - N/A   Overcast
3:54 AM 69.1 °F - 64.0 °F 84% 30.04 in 10.0 mi ESE 6.9 mph - N/A   Overcast
4:08 AM 69.8 °F - 64.4 °F 83% 30.03 in 10.0 mi ESE 5.8 mph - N/A   Overcast
4:54 AM 69.1 °F - 64.0 °F 84% 30.04 in 10.0 mi South 3.5 mph - N/A   Mostly Cloudy
5:05 AM 69.8 °F - 64.4 °F 83% 30.03 in 10.0 mi Variable 3.5 mph - N/A   Mostly Cloudy
5:21 AM 69.8 °F - 64.4 °F 83% 30.03 in 10.0 mi SSE 4.6 mph - N/A   Overcast
5:52 AM 69.8 °F - 64.4 °F 83% 30.04 in 10.0 mi SE 3.5 mph - N/A   Overcast
5:54 AM 69.1 °F - 64.9 °F 87% 30.06 in 10.0 mi SE 3.5 mph - N/A   Overcast
6:28 AM 69.8 °F - 64.4 °F 83% 30.05 in 10.0 mi SSE 3.5 mph - N/A   Overcast
6:46 AM 69.8 °F - 64.4 °F 83% 30.05 in 10.0 mi SE 5.8 mph - N/A   Overcast
6:54 AM 70.0 °F - 64.9 °F 84% 30.06 in 10.0 mi ESE 5.8 mph - N/A   Overcast
7:07 AM 69.8 °F - 64.4 °F 83% 30.05 in 10.0 mi ESE 5.8 mph - N/A   Overcast
7:35 AM 71.6 °F - 64.4 °F 78% 30.06 in 10.0 mi SE 5.8 mph - N/A   Overcast
7:54 AM 71.1 °F - 64.9 °F 81% 30.08 in 10.0 mi SE 5.8 mph - N/A   Overcast
8:19 AM 71.6 °F - 64.4 °F 78% 30.07 in 10.0 mi ESE 3.5 mph - N/A   Overcast
8:54 AM 73.9 °F - 66.9 °F 79% 30.08 in 10.0 mi ESE 6.9 mph - N/A   Overcast
9:10 AM 73.4 °F - 66.2 °F 78% 30.06 in 10.0 mi ENE 3.5 mph - N/A   Overcast
9:54 AM 75.9 °F - 66.0 °F 71% 30.08 in 10.0 mi Calm Calm - N/A   Overcast
10:32 AM 75.2 °F - 66.2 °F 73% 30.07 in 10.0 mi Calm Calm - N/A   Mostly Cloudy
10:54 AM 78.1 °F - 68.0 °F 71% 30.08 in 10.0 mi SSE 4.6 mph - N/A   Partly Cloudy
11:54 AM 80.1 °F 82.1 °F 66.0 °F 62% 30.08 in 10.0 mi Calm Calm - N/A   Overcast
12:11 PM 80.6 °F 82.7 °F 66.2 °F 61% 30.06 in 10.0 mi North 3.5 mph - N/A Thunderstorm Overcast
12:26 PM 80.6 °F 82.7 °F 66.2 °F 61% 30.06 in 10.0 mi NE 3.5 mph - N/A   Overcast
12:47 PM 73.4 °F - 69.8 °F 88% 30.07 in 1.8 mi NW 16.1 mph 21.9 mph 0.10 in Rain Rain
12:52 PM 71.6 °F - 69.8 °F 94% 30.08 in 0.8 mi NW 18.4 mph - 0.27 in Rain , Thunderstorm Heavy Thunderstorms and Rain
12:54 PM 72.0 °F - 68.0 °F 87% 30.10 in 0.5 mi NW 20.7 mph 25.3 mph 0.34 in Fog , Rain , Thunderstorm Heavy Thunderstorms and Rain
1:06 PM 71.6 °F - 69.8 °F 94% 30.08 in 0.8 mi NNW 10.4 mph - 0.35 in Rain , Thunderstorm Heavy Thunderstorms and Rain
1:16 PM 71.6 °F - 69.8 °F 94% 30.08 in 1.0 mi NE 10.4 mph - 0.53 in Rain Heavy Rain
1:24 PM 71.6 °F - 69.8 °F 94% 30.07 in 2.0 mi NE 8.1 mph - 0.57 in Rain Heavy Rain
1:36 PM 73.4 °F - 69.8 °F 88% 30.07 in 5.0 mi Calm Calm - 0.59 in Rain Light Rain
1:54 PM 73.0 °F - 70.0 °F 90% 30.08 in 7.0 mi South 4.6 mph - 0.59 in   Overcast
2:54 PM 77.0 °F - 70.0 °F 79% 30.06 in 10.0 mi Calm Calm - N/A   Scattered Clouds
3:54 PM 82.9 °F 86.5 °F 69.1 °F 63% 30.04 in 10.0 mi Calm Calm - N/A   Clear
4:54 PM 84.9 °F 88.2 °F 68.0 °F 57% 30.03 in 10.0 mi North 4.6 mph - N/A   Clear
5:54 PM 84.0 °F 86.5 °F 66.9 °F 56% 30.03 in 10.0 mi NW 3.5 mph - N/A   Clear
6:54 PM 80.1 °F 83.6 °F 71.1 °F 74% 30.05 in 10.0 mi NNW 6.9 mph - N/A   Partly Cloudy
7:54 PM 73.9 °F - 69.1 °F 85% 30.07 in 10.0 mi Calm Calm - 0.01 in   Partly Cloudy
8:54 PM 73.0 °F - 69.1 °F 87% 30.07 in 7.0 mi Calm Calm - N/A   Clear
9:54 PM 72.0 °F - 69.1 °F 91% 30.09 in 8.0 mi Calm Calm - N/A   Clear
10:54 PM 71.1 °F - 68.0 °F 90% 30.10 in 7.0 mi Calm Calm - N/A   Clear
11:54 PM 71.1 °F - 66.9 °F 87% 30.10 in 9.0 mi SE 4.6 mph - N/A   Clear